M I D A S
Marine Information and Data Acquisition System
Tripno 728 of the Zeeleeuw from 2004-06-03 06:30:24 to 2004-06-03 12:07:08
Back to CruiseResearch ActivitiesStationsMapUnderway DataData graphs

EquipmentUnitsComments
TimeDGPSUTC
LatitudeDGPSDM.mWGS84
LongitudeDGPSDM.mWGS84
SpeedMeteo Stationm/sRelative wind speed
DirectionMeteo StationdegRelative wind direction
TemperatureMeteo Stationdeg CelciusAir temperature
PressureMeteo StationPaAtmospheric pressure
HumidityMeteo Station%Relative humidity
Missing or incorrect values are displayed as -999
Metereological data collected by the RV Zeeleeuw from 2004-06-03 06:30:24 to 2004-06-03 12:07:08
                                                                                    Next 1000 lines
Time Latitude Longitude Speed Direction Temperature Pressure Humidity
2004-06-03 06:30:34 51°13.609 2°56.049 2.8 232 13.5 102860 79
2004-06-03 06:30:40 51°13.612 2°56.039 3.9 239 13.5 102860 79
2004-06-03 06:30:45 51°13.614 2°56.03 3.7 231 13.5 102860 79
2004-06-03 06:30:50 51°13.617 2°56.021 3.6 257 13.5 102860 79
2004-06-03 06:30:54 51°13.619 2°56.013 3.6 257 13.5 102860 79
2004-06-03 06:31:00 51°13.621 2°56.001 4.7 228 13.5 102860 79
2004-06-03 06:31:04 51°13.623 2°55.993 4.9 238 13.5 102860 79
2004-06-03 06:31:09 51°13.626 2°55.983 5.1 230 13.5 102860 79
2004-06-03 06:31:14 51°13.629 2°55.973 5 229 13.5 102860 79
2004-06-03 06:31:20 51°13.632 2°55.96 3.3 202 13.5 102860 79
2004-06-03 06:31:24 51°13.635 2°55.951 3.9 207 13.5 102870 78
2004-06-03 06:31:29 51°13.638 2°55.941 5.8 215 13.5 102870 78
2004-06-03 06:31:34 51°13.641 2°55.93 6.4 225 13.5 102870 78
2004-06-03 06:31:40 51°13.645 2°55.917 5.8 225 13.5 102870 78
2004-06-03 06:31:44 51°13.648 2°55.909 4.9 241 13.5 102860 78
2004-06-03 06:31:50 51°13.652 2°55.896 6.5 232 13.5 102860 78
2004-06-03 06:31:54 51°13.655 2°55.888 4.8 239 13.5 102860 78
2004-06-03 06:32:00 51°13.659 2°55.875 6.9 227 13.5 102860 78
2004-06-03 06:32:04 51°13.661 2°55.867 5.3 253 13.5 102860 78
2004-06-03 06:32:09 51°13.664 2°55.856 4.1 249 13.5 102860 78
2004-06-03 06:32:14 51°13.667 2°55.845 4.4 254 13.5 102860 78
2004-06-03 06:32:19 51°13.67 2°55.834 3.6 265 13.5 102860 78
2004-06-03 06:32:25 51°13.673 2°55.821 3.5 245 13.5 102870 78
2004-06-03 06:32:30 51°13.675 2°55.81 4.6 228 13.5 102870 78
2004-06-03 06:32:34 51°13.677 2°55.801 5.1 214 13.5 102870 78
2004-06-03 06:32:40 51°13.679 2°55.789 4.8 233 13.5 102870 78
2004-06-03 06:32:44 51°13.681 2°55.781 4.5 247 13.5 102860 78
2004-06-03 06:32:49 51°13.683 2°55.772 3.4 260 13.5 102860 78
2004-06-03 06:32:54 51°13.684 2°55.764 3.6 241 13.5 102860 78
2004-06-03 06:32:58 51°13.685 2°55.759 4.9 261 13.5 102860 78
2004-06-03 06:33:04 51°13.686 2°55.753 4.8 264 13.5 102860 78
2004-06-03 06:33:09 51°13.687 2°55.75 5.8 273 13.5 102860 78
2004-06-03 06:33:14 51°13.687 2°55.749 5.5 277 13.5 102860 78
2004-06-03 06:33:19 51°13.688 2°55.75 5.7 298 13.5 102860 78
2004-06-03 06:33:24 51°13.689 2°55.752 6.2 42 13.5 102860 78
2004-06-03 06:33:29 51°13.69 2°55.754 6.6 321 13.5 102860 78
2004-06-03 06:33:34 51°13.692 2°55.758 7.1 334 13.5 102860 78
2004-06-03 06:33:39 51°13.694 2°55.762 5 326 13.5 102860 78
2004-06-03 06:33:44 51°13.697 2°55.766 5.5 328 13.5 102860 78
2004-06-03 06:33:49 51°13.699 2°55.769 6.3 353 13.5 102860 78
2004-06-03 06:33:54 51°13.702 2°55.771 5.8 353 13.5 102850 78
2004-06-03 06:33:59 51°13.703 2°55.773 3.1 335 13.5 102850 78
2004-06-03 06:34:04 51°13.704 2°55.774 2.9 326 13.5 102850 78
2004-06-03 06:34:09 51°13.704 2°55.774 3.1 333 13.5 102850 78
2004-06-03 06:34:13 51°13.703 2°55.773 3.1 343 13.5 102850 78
2004-06-03 06:34:19 51°13.702 2°55.772 4.2 327 13.5 102850 78
2004-06-03 06:34:24 51°13.7 2°55.77 4 322 13.5 102860 78
2004-06-03 06:34:29 51°13.699 2°55.768 4.3 324 13.5 102860 78
2004-06-03 06:34:34 51°13.696 2°55.766 4.4 331 13.5 102860 78
2004-06-03 06:34:40 51°13.694 2°55.762 4.7 318 13.5 102860 78
2004-06-03 06:34:45 51°13.691 2°55.759 3.5 3 13.5 102860 78
2004-06-03 06:34:49 51°13.689 2°55.757 3.3 316 13.5 102860 78
2004-06-03 06:34:54 51°13.686 2°55.753 3.1 355 13.5 102860 78
2004-06-03 06:35:00 51°13.683 2°55.75 3 308 13.5 102860 78
2004-06-03 06:35:05 51°13.682 2°55.748 3.5 327 13.5 102860 78
2004-06-03 06:35:10 51°13.683 2°55.748 4.7 1 13.5 102860 78
2004-06-03 06:35:14 51°13.684 2°55.748 5.5 360 13.5 102860 78
2004-06-03 06:35:20 51°13.688 2°55.748 7   13.5 102860 78
2004-06-03 06:35:25 51°13.693 2°55.747 6.7 1 13.5 102860 78
2004-06-03 06:35:30 51°13.698 2°55.745 7.7 19 13.5 102860 78
2004-06-03 06:35:34 51°13.703 2°55.742 7.4 25 13.4 102860 78
2004-06-03 06:35:39 51°13.709 2°55.738 7 35 13.4 102860 78
2004-06-03 06:35:44 51°13.715 2°55.733 6.5 32 13.5 102860 78
2004-06-03 06:35:48 51°13.719 2°55.729 6.8 37 13.5 102860 78
2004-06-03 06:35:54 51°13.725 2°55.723 7.7 37 13.4 102850 78
2004-06-03 06:35:59 51°13.732 2°55.717 6.9 30 13.4 102850 78
2004-06-03 06:36:04 51°13.738 2°55.71 6.7 16 13.4 102850 78
2004-06-03 06:36:09 51°13.745 2°55.704 5.4 29 13.4 102850 78
2004-06-03 06:36:12 51°13.75 2°55.699 7.1 8 13.4 102850 78
2004-06-03 06:36:18 51°13.759 2°55.691 4.4 17 13.4 102850 78
2004-06-03 06:36:24 51°13.77 2°55.683 5.5 24 13.4 102850 78
2004-06-03 06:36:29 51°13.778 2°55.676 9.3 26 13.4 102850 78
2004-06-03 06:36:34 51°13.788 2°55.668 9.8 23 13.4 102850 78
2004-06-03 06:36:38 51°13.795 2°55.663 9.1 32 13.4 102850 78
2004-06-03 06:36:44 51°13.807 2°55.655 8.3 28 13.4 102850 78
2004-06-03 06:36:49 51°13.817 2°55.648 10 26 13.4 102850 78
2004-06-03 06:36:54 51°13.827 2°55.642 8.8 22 13.4 102850 78
2004-06-03 06:36:58 51°13.835 2°55.637 9.8 30 13.4 102850 78
2004-06-03 06:37:04 51°13.848 2°55.629 10.3 35 13.4 102850 78
2004-06-03 06:37:08 51°13.856 2°55.624 9.6 29 13.4 102850 78
2004-06-03 06:37:14 51°13.869 2°55.616 9.1 30 13.4 102850 78
2004-06-03 06:37:19 51°13.879 2°55.609 9.5 33 13.4 102850 78
2004-06-03 06:37:24 51°13.89 2°55.602 10.3 32 13.4 102850 78
2004-06-03 06:37:28 51°13.898 2°55.596 9.9 39 13.4 102850 78
2004-06-03 06:37:34 51°13.911 2°55.588 10.2 33 13.4 102840 78
2004-06-03 06:37:39 51°13.922 2°55.581 10.2 40 13.4 102840 78
2004-06-03 06:37:44 51°13.933 2°55.574 9.7 36 13.4 102850 78
2004-06-03 06:37:49 51°13.944 2°55.567 7.1 25 13.4 102850 78
2004-06-03 06:37:54 51°13.955 2°55.56 6.7 32 13.4 102840 78
2004-06-03 06:37:58 51°13.964 2°55.554 10 22 13.4 102840 78
2004-06-03 06:38:04 51°13.977 2°55.546 8.9 26 13.4 102840 78
2004-06-03 06:38:09 51°13.988 2°55.539 7.5 30 13.4 102840 78
2004-06-03 06:38:14 51°13.999 2°55.532 6.9 15 13.4 102850 79
2004-06-03 06:38:19 51°14.011 2°55.525 10.9 31 13.4 102850 79
2004-06-03 06:38:24 51°14.022 2°55.518 9.9 34 13.4 102850 79
2004-06-03 06:38:29 51°14.033 2°55.51 9.6 25 13.4 102850 79
2004-06-03 06:38:34 51°14.044 2°55.502 8.4 32 13.4 102850 79
2004-06-03 06:38:37 51°14.05 2°55.497 8.4 21 13.4 102850 79
2004-06-03 06:38:44 51°14.065 2°55.485 8.6 26 13.4 102850 79
2004-06-03 06:38:49 51°14.076 2°55.476 8.3 29 13.4 102850 79
2004-06-03 06:38:54 51°14.087 2°55.467 8.3 31 13.4 102850 79
2004-06-03 06:38:57 51°14.094 2°55.461 9.3 41 13.4 102850 79
2004-06-03 06:39:04 51°14.11 2°55.447 9.9 30 13.4 102850 79
2004-06-03 06:39:08 51°14.119 2°55.438 10.3 35 13.4 102850 79
2004-06-03 06:39:14 51°14.133 2°55.424 9.9 34 13.4 102850 79
2004-06-03 06:39:20 51°14.148 2°55.41 9.2 34 13.4 102850 79
2004-06-03 06:39:25 51°14.16 2°55.398 10.4 27 13.4 102850 80
2004-06-03 06:39:29 51°14.169 2°55.388 9.2 23 13.4 102850 80
2004-06-03 06:39:34 51°14.181 2°55.375 10.2 33 13.4 102840 79
2004-06-03 06:39:40 51°14.195 2°55.358 9.4 32 13.4 102840 79
2004-06-03 06:39:44 51°14.204 2°55.347 9.9 37 13.4 102850 79
2004-06-03 06:39:49 51°14.215 2°55.332 9.1 41 13.4 102850 79
2004-06-03 06:39:54 51°14.226 2°55.316 9.6 49 13.4 102850 79
2004-06-03 06:39:58 51°14.234 2°55.302 8.9 36 13.4 102850 79
2004-06-03 06:40:04 51°14.246 2°55.282 8.4 38 13.4 102850 79
2004-06-03 06:40:09 51°14.257 2°55.265 8.3 36 13.4 102850 79
2004-06-03 06:40:14 51°14.267 2°55.247 7.8 32 13.3 102850 79
2004-06-03 06:40:19 51°14.276 2°55.229 7.3 23 13.3 102850 79
2004-06-03 06:40:24 51°14.286 2°55.211 9 31 13.4 102850 79
2004-06-03 06:40:29 51°14.296 2°55.192 8.8 35 13.4 102850 79
2004-06-03 06:40:34 51°14.307 2°55.173 9.1 43 13.4 102860 80
2004-06-03 06:40:37 51°14.313 2°55.162 8.5 39 13.4 102860 80
2004-06-03 06:40:44 51°14.328 2°55.135 8.6 40 13.4 102850 80
2004-06-03 06:40:49 51°14.339 2°55.116 8.4 30 13.4 102850 80
2004-06-03 06:40:54 51°14.351 2°55.098 9.1 38 13.4 102850 80
2004-06-03 06:40:58 51°14.36 2°55.082 10.9 48 13.4 102850 80
2004-06-03 06:41:04 51°14.373 2°55.059 10.2 44 13.4 102850 80
2004-06-03 06:41:09 51°14.385 2°55.04 10.5 45 13.4 102850 80
2004-06-03 06:41:14 51°14.397 2°55.021 10.1 47 13.4 102860 80
2004-06-03 06:41:19 51°14.408 2°55 10.3 47 13.4 102860 80
2004-06-03 06:41:24 51°14.418 2°54.978 10.4 48 13.4 102850 80
2004-06-03 06:41:29 51°14.427 2°54.955 9.7 51 13.4 102850 80
2004-06-03 06:41:32 51°14.431 2°54.94 9.4 51 13.4 102840 80
2004-06-03 06:41:38 51°14.44 2°54.911 9.7 48 13.4 102840 80
2004-06-03 06:41:44 51°14.449 2°54.88 9.3 47 13.4 102840 80
2004-06-03 06:41:49 51°14.456 2°54.855 9.2 49 13.4 102840 80
2004-06-03 06:41:54 51°14.461 2°54.828 9.2 49 13.3 102840 79
2004-06-03 06:41:58 51°14.464 2°54.806 8 52 13.3 102840 79
2004-06-03 06:42:04 51°14.469 2°54.773 8.7 50 13.4 102840 79
2004-06-03 06:42:08 51°14.47 2°54.751 8.6 58 13.4 102840 79
2004-06-03 06:42:14 51°14.473 2°54.717 8.6 60 13.4 102850 80
2004-06-03 06:42:18 51°14.473 2°54.695 7.4 67 13.4 102850 80
2004-06-03 06:42:24 51°14.472 2°54.662 6.9 72 13.4 102840 80
2004-06-03 06:42:29 51°14.47 2°54.635 7 83 13.4 102840 80
2004-06-03 06:42:33 51°14.468 2°54.614 5.4 76 13.4 102840 80
2004-06-03 06:42:39 51°14.465 2°54.585 4.7 78 13.4 102840 80
2004-06-03 06:42:44 51°14.462 2°54.562 6.2 82 13.4 102850 80
2004-06-03 06:42:49 51°14.458 2°54.541 6 93 13.4 102850 80
2004-06-03 06:42:54 51°14.455 2°54.521 5.6 94 13.4 102850 80
2004-06-03 06:42:57 51°14.452 2°54.51 5.5 105 13.4 102850 80
2004-06-03 06:43:04 51°14.447 2°54.485 5.7 95 13.4 102850 80
2004-06-03 06:43:09 51°14.443 2°54.468 5.3 102 13.4 102850 80
2004-06-03 06:43:14 51°14.439 2°54.453 5.4 103 13.4 102860 80
2004-06-03 06:43:17 51°14.436 2°54.444 5.8 112 13.4 102860 80
2004-06-03 06:43:24 51°14.431 2°54.425 5.3 111 13.4 102860 81
2004-06-03 06:43:29 51°14.427 2°54.412 5.2 115 13.4 102860 81
2004-06-03 06:43:34 51°14.423 2°54.399 5.3 113 13.4 102860 81
2004-06-03 06:43:38 51°14.419 2°54.389 5.7 118 13.4 102860 81
2004-06-03 06:43:44 51°14.415 2°54.376 5.4 117 13.4 102860 80
2004-06-03 06:43:48 51°14.413 2°54.367 5.5 121 13.4 102860 80
2004-06-03 06:43:54 51°14.409 2°54.353 5.6 118 13.4 102860 80
2004-06-03 06:43:59 51°14.406 2°54.342 5.7 117 13.4 102860 80
2004-06-03 06:44:04 51°14.403 2°54.332 5.4 116 13.4 102860 80
2004-06-03 06:44:09 51°14.4 2°54.322 5.2 114 13.4 102860 80
2004-06-03 06:44:14 51°14.398 2°54.312 5.4 113 13.3 102860 79
2004-06-03 06:44:19 51°14.395 2°54.303 5.6 114 13.3 102860 79
2004-06-03 06:44:24 51°14.393 2°54.293 5.7 118 13.3 102860 79
2004-06-03 06:44:29 51°14.391 2°54.284 5.7 117 13.3 102860 79
2004-06-03 06:44:34 51°14.389 2°54.275 5.5 117 13.3 102860 79
2004-06-03 06:44:37 51°14.388 2°54.27 5.5 118 13.3 102860 79
2004-06-03 06:44:44 51°14.385 2°54.258 5.2 112 13.3 102860 79
2004-06-03 06:44:49 51°14.384 2°54.249 5.3 120 13.3 102860 79
2004-06-03 06:44:54 51°14.382 2°54.241 5.4 124 13.3 102860 79
2004-06-03 06:44:57 51°14.381 2°54.236 5 118 13.3 102860 79
2004-06-03 06:45:04 51°14.378 2°54.225 5 121 13.3 102860 79
2004-06-03 06:45:09 51°14.377 2°54.217 5.3 115 13.3 102860 79
2004-06-03 06:45:14 51°14.375 2°54.21 5 122 13.3 102860 79
2004-06-03 06:45:19 51°14.373 2°54.202 4.7 113 13.3 102860 79
2004-06-03 06:45:24 51°14.372 2°54.195 4.4 118 13.3 102860 79
2004-06-03 06:45:29 51°14.37 2°54.187 4.7 115 13.3 102860 79
2004-06-03 06:45:33 51°14.369 2°54.182 4.8 115 13.3 102870 79
2004-06-03 06:45:36 51°14.368 2°54.177 4.5 125 13.3 102870 79
2004-06-03 06:45:44 51°14.365 2°54.166 4.7 132 13.3 102870 80
2004-06-03 06:45:49 51°14.364 2°54.159 6.1 127 13.3 102870 80
2004-06-03 06:45:54 51°14.363 2°54.152 6.7 126 13.4 102870 80
2004-06-03 06:45:59 51°14.361 2°54.146 6 122 13.4 102870 80
2004-06-03 06:46:04 51°14.359 2°54.139 6.9 107 13.4 102870 80
2004-06-03 06:46:09 51°14.358 2°54.133 5.6 115 13.4 102870 80
2004-06-03 06:46:14 51°14.356 2°54.126 5.7 112 13.4 102870 80
2004-06-03 06:46:18 51°14.355 2°54.121 5.5 105 13.4 102870 80
2004-06-03 06:46:24 51°14.353 2°54.114 5.3 113 13.4 102860 80
2004-06-03 06:46:29 51°14.352 2°54.108 5.2 114 13.4 102860 80
2004-06-03 06:46:34 51°14.351 2°54.102 5.8 116 13.4 102860 80
2004-06-03 06:46:38 51°14.35 2°54.097 6.2 116 13.4 102860 80
2004-06-03 06:46:44 51°14.348 2°54.09 5.5 114 13.4 102860 80
2004-06-03 06:46:49 51°14.347 2°54.085 5.8 112 13.4 102860 80
2004-06-03 06:46:54 51°14.346 2°54.079 5.6 118 13.4 102860 80
2004-06-03 06:46:57 51°14.345 2°54.076 5.9 119 13.4 102860 80
2004-06-03 06:47:04 51°14.343 2°54.068 5.6 114 13.4 102860 80
2004-06-03 06:47:09 51°14.342 2°54.061 5.6 114 13.4 102860 80
2004-06-03 06:47:13 51°14.341 2°54.055 5.4 115 13.4 102870 80
2004-06-03 06:47:19 51°14.339 2°54.043 4.8 118 13.4 102870 80
2004-06-03 06:47:24 51°14.336 2°54.031 5 110 13.4 102870 80
2004-06-03 06:47:29 51°14.333 2°54.017 4.9 109 13.4 102870 80
2004-06-03 06:47:32 51°14.331 2°54.008 5.4 100 13.4 102860 80
2004-06-03 06:47:38 51°14.325 2°53.988 5.2 95 13.4 102860 80
2004-06-03 06:47:44 51°14.319 2°53.966 5.4 99 13.4 102860 80
2004-06-03 06:47:49 51°14.313 2°53.946 4.6 102 13.4 102860 80
2004-06-03 06:47:54 51°14.305 2°53.925 5 96 13.4 102860 80
2004-06-03 06:47:57 51°14.301 2°53.912 5.2 95 13.4 102860 80
2004-06-03 06:48:04 51°14.289 2°53.882 4.7 91 13.4 102870 81
2004-06-03 06:48:09 51°14.28 2°53.859 4.6 89 13.4 102870 81
2004-06-03 06:48:13 51°14.272 2°53.842 4.7 90 13.4 102870 80
2004-06-03 06:48:18 51°14.263 2°53.819 4.4 94 13.4 102870 80
2004-06-03 06:48:24 51°14.252 2°53.792 4.8 91 13.4 102860 80
2004-06-03 06:48:29 51°14.243 2°53.77 5.2 80 13.4 102860 80
2004-06-03 06:48:34 51°14.234 2°53.746 5 77 13.4 102870 80
2004-06-03 06:48:38 51°14.226 2°53.728 4.7 68 13.4 102870 80
2004-06-03 06:48:44 51°14.215 2°53.699 5 75 13.4 102870 80
2004-06-03 06:48:49 51°14.205 2°53.676 4.6 74 13.4 102870 80
2004-06-03 06:48:54 51°14.195 2°53.65 4.4 69 13.4 102870 80
2004-06-03 06:48:59 51°14.185 2°53.626 4.5 65 13.4 102870 80
2004-06-03 06:49:04 51°14.174 2°53.601 4.2 67 13.4 102870 80
2004-06-03 06:49:09 51°14.164 2°53.575 4.9 63 13.4 102870 80
2004-06-03 06:49:12 51°14.157 2°53.56 5.2 62 13.4 102870 80
2004-06-03 06:49:19 51°14.142 2°53.524 5 67 13.4 102870 80
2004-06-03 06:49:24 51°14.132 2°53.498 4.6 67 13.4 102870 80
2004-06-03 06:49:29 51°14.121 2°53.472 4.7 70 13.4 102870 80
2004-06-03 06:49:34 51°14.11 2°53.446 4.5 68 13.4 102870 80
2004-06-03 06:49:39 51°14.099 2°53.42 5 68 13.4 102870 80
2004-06-03 06:49:44 51°14.089 2°53.392 5.2 67 13.4 102870 80
2004-06-03 06:49:49 51°14.078 2°53.366 5 63 13.4 102870 80
2004-06-03 06:49:54 51°14.068 2°53.339 5 69 13.3 102870 80
2004-06-03 06:49:58 51°14.06 2°53.317 4.7 63 13.3 102870 80
2004-06-03 06:50:04 51°14.047 2°53.284 4.3 67 13.4 102870 80
2004-06-03 06:50:08 51°14.039 2°53.262 4.6 71 13.4 102870 80
2004-06-03 06:50:14 51°14.026 2°53.23 4.4 66 13.3 102870 80
2004-06-03 06:50:19 51°14.014 2°53.204 4.3 61 13.3 102870 80
2004-06-03 06:50:24 51°14.003 2°53.177 4.5 64 13.3 102870 80
2004-06-03 06:50:29 51°13.991 2°53.151 5.2 59 13.3 102870 80
2004-06-03 06:50:34 51°13.979 2°53.125 5.1 51 13.3 102880 80
2004-06-03 06:50:38 51°13.97 2°53.105 4 75 13.3 102880 80
2004-06-03 06:50:44 51°13.956 2°53.076 3.8 73 13.3 102870 80
2004-06-03 06:50:49 51°13.945 2°53.053 4.3 67 13.3 102870 80
2004-06-03 06:50:54 51°13.934 2°53.03 4 71 13.3 102870 81
2004-06-03 06:50:58 51°13.925 2°53.013 3.8 88 13.3 102870 81
2004-06-03 06:51:04 51°13.912 2°52.99 3.7 90 13.4 102870 81
2004-06-03 06:51:09 51°13.902 2°52.972 3.7 114 13.4 102870 81
2004-06-03 06:51:14 51°13.893 2°52.957 3.4 116 13.4 102870 81
2004-06-03 06:51:19 51°13.883 2°52.942 3.6 124 13.4 102870 81
2004-06-03 06:51:24 51°13.875 2°52.929 3.4 127 13.3 102870 80
2004-06-03 06:51:29 51°13.868 2°52.916 3.9 126 13.3 102870 80
2004-06-03 06:51:34 51°13.862 2°52.903 4.1 123 13.3 102870 80
2004-06-03 06:51:39 51°13.856 2°52.891 3.6 122 13.3 102870 80
2004-06-03 06:51:44 51°13.851 2°52.879 4.4 116 13.3 102870 80
2004-06-03 06:51:48 51°13.848 2°52.87 4.5 121 13.3 102870 80
2004-06-03 06:51:54 51°13.844 2°52.857 4.4 108 13.3 102870 80
2004-06-03 06:51:59 51°13.841 2°52.847 5.3 115 13.3 102870 80
2004-06-03 06:52:04 51°13.838 2°52.838 5.3 119 13.3 102870 80
2004-06-03 06:52:08 51°13.837 2°52.832 5.5 113 13.3 102870 80
2004-06-03 06:52:14 51°13.834 2°52.825 5.6 112 13.3 102870 80
2004-06-03 06:52:18 51°13.833 2°52.822 5.4 111 13.3 102870 80
2004-06-03 06:52:24 51°13.831 2°52.819 5.7 117 13.3 102870 80
2004-06-03 06:52:28 51°13.829 2°52.818 5.8 120 13.3 102870 80
2004-06-03 06:52:34 51°13.827 2°52.819 6.2 124 13.3 102870 80
2004-06-03 06:52:38 51°13.826 2°52.819 5.8 126 13.3 102870 80
2004-06-03 06:52:44 51°13.824 2°52.82 6.1 125 13.4 102870 80
2004-06-03 06:52:49 51°13.822 2°52.819 5.4 125 13.4 102870 80
2004-06-03 06:52:54 51°13.821 2°52.816 5.3 121 13.3 102860 80
2004-06-03 06:53:00 51°13.818 2°52.81 6 125 13.3 102860 80
2004-06-03 06:53:04 51°13.817 2°52.806 5.2 116 13.3 102870 80
2004-06-03 06:53:10 51°13.815 2°52.8 4.9 124 13.3 102870 80
2004-06-03 06:53:14 51°13.813 2°52.796 4.7 122 13.3 102860 80
2004-06-03 06:53:20 51°13.811 2°52.79 5.5 123 13.3 102860 80
2004-06-03 06:53:24 51°13.809 2°52.786 5.2 124 13.3 102860 80
2004-06-03 06:53:29 51°13.808 2°52.781 5.7 121 13.3 102860 80
2004-06-03 06:53:34 51°13.806 2°52.776 5.7 125 13.3 102870 80
2004-06-03 06:53:39 51°13.804 2°52.771 5.6 126 13.3 102870 80
2004-06-03 06:53:44 51°13.802 2°52.766 5.8 123 13.4 102870 81
2004-06-03 06:53:48 51°13.8 2°52.762 4.8 122 13.4 102870 81
2004-06-03 06:53:54 51°13.798 2°52.757 5.9 124 13.4 102870 80
2004-06-03 06:53:58 51°13.797 2°52.753 5.6 124 13.4 102870 80
2004-06-03 06:54:04 51°13.794 2°52.747 5.3 123 13.3 102870 80
2004-06-03 06:54:09 51°13.793 2°52.742 4.4 121 13.3 102870 80
2004-06-03 06:54:14 51°13.791 2°52.737 4.7 119 13.4 102870 80
2004-06-03 06:54:19 51°13.789 2°52.733 4.8 121 13.4 102870 80
2004-06-03 06:54:24 51°13.787 2°52.729 4.8 123 13.4 102870 80
2004-06-03 06:54:29 51°13.785 2°52.726 5.3 124 13.4 102870 80
2004-06-03 06:54:34 51°13.784 2°52.725 6.1 122 13.3 102870 80
2004-06-03 06:54:39 51°13.782 2°52.725 5.5 126 13.3 102870 80
2004-06-03 06:54:44 51°13.78 2°52.725 5 131 13.3 102870 80
2004-06-03 06:54:49 51°13.779 2°52.725 5.2 132 13.3 102870 80
2004-06-03 06:54:54 51°13.777 2°52.724 5.3 128 13.4 102870 80
2004-06-03 06:55:00 51°13.775 2°52.724 5.4 129 13.4 102870 80
2004-06-03 06:55:05 51°13.773 2°52.724 5.1 132 13.4 102870 80
2004-06-03 06:55:10 51°13.772 2°52.724 4.9 132 13.4 102870 80
2004-06-03 06:55:14 51°13.77 2°52.723 5 131 13.4 102870 80
2004-06-03 06:55:17 51°13.769 2°52.723 4.7 45 13.4 102870 80
2004-06-03 06:55:24 51°13.767 2°52.722 4.9 129 13.4 102870 80
2004-06-03 06:55:29 51°13.766 2°52.721 4.9 133 13.4 102870 80
2004-06-03 06:55:32 51°13.765 2°52.721 5.6 131 13.3 102870 79
2004-06-03 06:55:38 51°13.763 2°52.72 5.3 133 13.3 102870 79
2004-06-03 06:55:44 51°13.761 2°52.719 5.4 133 13.4 102870 79
2004-06-03 06:55:49 51°13.759 2°52.718 5.1 132 13.4 102870 79
2004-06-03 06:55:54 51°13.758 2°52.717 4.8 136 13.3 102870 79
2004-06-03 06:55:58 51°13.757 2°52.716 5.1 127 13.3 102870 79
2004-06-03 06:56:04 51°13.755 2°52.715 5.4 129 13.3 102870 79
2004-06-03 06:56:09 51°13.753 2°52.714 5 133 13.3 102870 79
2004-06-03 06:56:14 51°13.752 2°52.713 5.2 132 13.3 102870 79
2004-06-03 06:56:18 51°13.75 2°52.712 5.3 225 13.3 102870 79
2004-06-03 06:56:24 51°13.748 2°52.71 6.3 139 13.4 102870 80
2004-06-03 06:56:29 51°13.747 2°52.709 6.1 142 13.4 102870 80
2004-06-03 06:56:33 51°13.746 2°52.708 6.3 139 13.4 102870 80
2004-06-03 06:56:39 51°13.744 2°52.706 6.7 140 13.4 102870 80
2004-06-03 06:56:44 51°13.742 2°52.705 6.3 137 13.4 102870 80
2004-06-03 06:56:49 51°13.74 2°52.703 5.6 135 13.4 102870 80
2004-06-03 06:56:54 51°13.738 2°52.701 6.3 141 13.4 102870 80
2004-06-03 06:56:58 51°13.737 2°52.7 5.9 135 13.4 102870 80
2004-06-03 06:57:04 51°13.735 2°52.698 5.5 139 13.4 102870 79
2004-06-03 06:57:09 51°13.733 2°52.696 6 136 13.4 102870 79
2004-06-03 06:57:14 51°13.731 2°52.694 6.3 137 13.4 102870 79
2004-06-03 06:57:18 51°13.73 2°52.692 5.9 135 13.4 102870 79
2004-06-03 06:57:24 51°13.728 2°52.69 6 139 13.4 102870 80
2004-06-03 06:57:29 51°13.726 2°52.687 5.6 136 13.4 102870 80
2004-06-03 06:57:34 51°13.724 2°52.685 5.6 139 13.4 102870 80
2004-06-03 06:57:39 51°13.722 2°52.683 6.1 138 13.4 102870 80
2004-06-03 06:57:44 51°13.721 2°52.68 6.4 136 13.4 102870 79
2004-06-03 06:57:48 51°13.719 2°52.679 6.2 136 13.4 102870 79
2004-06-03 06:57:54 51°13.717 2°52.676 6 134 13.4 102870 79
2004-06-03 06:57:59 51°13.715 2°52.673 6.1 136 13.4 102870 79
2004-06-03 06:58:04 51°13.713 2°52.67 5.9 134 13.4 102870 79
2004-06-03 06:58:08 51°13.711 2°52.667 5.9 135 13.4 102870 79
2004-06-03 06:58:14 51°13.709 2°52.663 5.6 129 13.4 102870 80
2004-06-03 06:58:19 51°13.707 2°52.66 4.9 131 13.4 102870 80
2004-06-03 06:58:24 51°13.704 2°52.656 5.4 132 13.4 102870 80
2004-06-03 06:58:29 51°13.702 2°52.652 4.8 130 13.4 102870 80
2004-06-03 06:58:34 51°13.7 2°52.648 4.9 128 13.4 102870 79
2004-06-03 06:58:37 51°13.698 2°52.645 5.2 127 13.4 102870 79
2004-06-03 06:58:44 51°13.695 2°52.639 4.9 128 13.4 102870 79
2004-06-03 06:58:49 51°13.693 2°52.634 4.5 126 13.4 102870 79
2004-06-03 06:58:54 51°13.69 2°52.629 4.8 130 13.4 102880 79
2004-06-03 06:58:59 51°13.688 2°52.623 4.3 124 13.4 102880 79
2004-06-03 06:59:04 51°13.685 2°52.618 4.2 122 13.4 102870 79
2004-06-03 06:59:09 51°13.683 2°52.612 4.3 128 13.4 102870 79
2004-06-03 06:59:14 51°13.68 2°52.607 4.1 124 13.4 102880 79
2004-06-03 06:59:18 51°13.678 2°52.602 3.9 121 13.4 102880 79
2004-06-03 06:59:24 51°13.675 2°52.595 4.3 127 13.4 102880 80
2004-06-03 06:59:28 51°13.673 2°52.59 4.4 120 13.4 102880 80
2004-06-03 06:59:34 51°13.67 2°52.582 4 125 13.4 102870 80
2004-06-03 06:59:38 51°13.668 2°52.576 4.3 122 13.4 102870 80
2004-06-03 06:59:44 51°13.665 2°52.569 3.7 115 13.4 102880 80
2004-06-03 06:59:48 51°13.663 2°52.563 3.8 128 13.4 102880 80
2004-06-03 06:59:54 51°13.659 2°52.555 4 126 13.4 102870 80
2004-06-03 06:59:59 51°13.657 2°52.548 4 124 13.4 102870 80
2004-06-03 07:00:04 51°13.654 2°52.542 4.2 127 13.4 102880 80
2004-06-03 07:00:08 51°13.652 2°52.536 4.3 126 13.4 102880 80
2004-06-03 07:00:14 51°13.648 2°52.528 3.9 123 13.4 102870 79
2004-06-03 07:00:18 51°13.646 2°52.523 4.2 116 13.4 102870 79
2004-06-03 07:00:24 51°13.643 2°52.514 4.7 132 13.4 102870 79
2004-06-03 07:00:28 51°13.641 2°52.509 3.7 130 13.4 102870 79
2004-06-03 07:00:33 51°13.638 2°52.502 3.9 121 13.4 102880 80
2004-06-03 07:00:39 51°13.635 2°52.494 3.8 132 13.4 102880 80
2004-06-03 07:00:44 51°13.632 2°52.487 4.6 119 13.4 102870 80
2004-06-03 07:00:49 51°13.629 2°52.48 4.5 130 13.4 102870 80
2004-06-03 07:00:54 51°13.626 2°52.473 5 128 13.4 102870 80
2004-06-03 07:00:59 51°13.623 2°52.467 4.6 126 13.4 102870 80
2004-06-03 07:01:04 51°13.621 2°52.46 4.5 130 13.5 102870 81
2004-06-03 07:01:08 51°13.619 2°52.455 4 125 13.5 102870 81
2004-06-03 07:01:14 51°13.615 2°52.447 4 128 13.5 102870 81
2004-06-03 07:01:19 51°13.612 2°52.44 4.8 123 13.5 102870 81
2004-06-03 07:01:24 51°13.609 2°52.433 4.4 126 13.5 102870 80
2004-06-03 07:01:28 51°13.607 2°52.428 4.6 130 13.5 102870 80
2004-06-03 07:01:32 51°13.605 2°52.422 4.3 126 13.5 102870 80
2004-06-03 07:01:41 51°13.6 2°52.41 4 121 13.5 102880 80
2004-06-03 07:01:47 51°13.597 2°52.403 4.4 115 13.5 102880 80
2004-06-03 07:01:52 51°13.594 2°52.396 4.8 123 13.5 102880 81
2004-06-03 07:01:57 51°13.591 2°52.39 4.4 120 13.5 102880 81
2004-06-03 07:02:02 51°13.589 2°52.384 5.3 136 13.5 102880 81
2004-06-03 07:02:06 51°13.587 2°52.379 4.7 126 13.5 102880 81
2004-06-03 07:02:12 51°13.584 2°52.371 5.4 124 13.5 102870 81
2004-06-03 07:02:17 51°13.581 2°52.365 5.5 121 13.5 102870 81
2004-06-03 07:02:22 51°13.578 2°52.359 5.6 125 13.5 102870 81
2004-06-03 07:02:24 51°13.577 2°52.357 6.2 127 13.5 102870 81
2004-06-03 07:02:31 51°13.574 2°52.349 6.1 121 13.5 102870 81
2004-06-03 07:02:37 51°13.57 2°52.341 6 128 13.5 102870 81
2004-06-03 07:02:42 51°13.568 2°52.335 5.5 129 13.5 102870 81
2004-06-03 07:02:47 51°13.566 2°52.329 5.5 118 13.5 102870 81
2004-06-03 07:02:52 51°13.563 2°52.323 5.9 109 13.5 102860 80
2004-06-03 07:02:57 51°13.561 2°52.318 5.7 108 13.5 102860 80
2004-06-03 07:03:02 51°13.558 2°52.312 5.3 123 13.5 102870 80
2004-06-03 07:03:07 51°13.556 2°52.306 6.1 116 13.5 102870 80
2004-06-03 07:03:12 51°13.554 2°52.3 6.1 115 13.5 102870 80
2004-06-03 07:03:17 51°13.552 2°52.295 6.1 117 13.5 102870 80
2004-06-03 07:03:22 51°13.55 2°52.289 5.9 115 13.5 102870 80
2004-06-03 07:03:26 51°13.548 2°52.285 5.6 114 13.5 102870 80
2004-06-03 07:03:32 51°13.545 2°52.278 5.9 117 13.5 102870 81
2004-06-03 07:03:37 51°13.543 2°52.272 5.7 116 13.5 102870 81
2004-06-03 07:03:42 51°13.541 2°52.267 5.6 107 13.5 102870 80
2004-06-03 07:03:44 51°13.54 2°52.265 6.1 120 13.5 102870 80
2004-06-03 07:03:51 51°13.538 2°52.257 5.5 117 13.4 102870 80
2004-06-03 07:03:57 51°13.535 2°52.251 5.3 117 13.4 102870 80
2004-06-03 07:04:02 51°13.533 2°52.245 5.6 118 13.4 102870 80
2004-06-03 07:04:06 51°13.532 2°52.241 6 119 13.4 102870 80
2004-06-03 07:04:09 51°13.531 2°52.238 5.7 117 13.4 102870 80
2004-06-03 07:04:17 51°13.528 2°52.23 5.1 121 13.4 102870 80
2004-06-03 07:04:22 51°13.526 2°52.224 5.1 118 13.4 102870 81
2004-06-03 07:04:24 51°13.525 2°52.222 5.1 113 13.4 102870 81
2004-06-03 07:04:31 51°13.523 2°52.215 5 119 13.4 102870 81
2004-06-03 07:04:37 51°13.521 2°52.209 4.6 119 13.4 102870 81
2004-06-03 07:04:42 51°13.519 2°52.204 4.7 116 13.4 102880 80
2004-06-03 07:04:47 51°13.517 2°52.199 4.5 120 13.4 102880 80
2004-06-03 07:04:52 51°13.515 2°52.194 4.9 116 13.4 102870 81
2004-06-03 07:04:57 51°13.513 2°52.189 4.6 114 13.4 102870 81
2004-06-03 07:05:02 51°13.512 2°52.184 5.3 118 13.4 102870 81
2004-06-03 07:05:04 51°13.511 2°52.182 5 112 13.4 102870 81
2004-06-03 07:05:12 51°13.508 2°52.174 5.6 116 13.4 102870 80
2004-06-03 07:05:17 51°13.506 2°52.169 4.7 107 13.4 102870 80
2004-06-03 07:05:22 51°13.504 2°52.164 4.8 108 13.4 102870 80
2004-06-03 07:05:24 51°13.504 2°52.162 5.3 105 13.4 102870 80
2004-06-03 07:05:30 51°13.501 2°52.156 5.8 108 13.4 102870 81
2004-06-03 07:05:36 51°13.499 2°52.151 5.7 110 13.4 102870 81
2004-06-03 07:05:42 51°13.497 2°52.145 6.2 110 13.4 102860 81
2004-06-03 07:05:44 51°13.496 2°52.143 5.8 113 13.4 102860 81
2004-06-03 07:05:52 51°13.493 2°52.136 6.3 112 13.4 102870 81
2004-06-03 07:05:56 51°13.491 2°52.132 6.5 111 13.4 102870 81
2004-06-03 07:06:02 51°13.489 2°52.126 6.5 111 13.4 102870 81
2004-06-03 07:06:04 51°13.488 2°52.124 5.7 104 13.4 102870 81
2004-06-03 07:06:12 51°13.484 2°52.116 5.8 99 13.4 102870 81
2004-06-03 07:06:16 51°13.483 2°52.113 6.3 89 13.4 102870 81
2004-06-03 07:06:22 51°13.48 2°52.107 5.9 96 13.4 102870 80
2004-06-03 07:06:26 51°13.479 2°52.104 5.8 99 13.4 102870 80
2004-06-03 07:06:32 51°13.476 2°52.098 5.4 96 13.4 102880 81
2004-06-03 07:06:37 51°13.474 2°52.094 5.6 95 13.4 102880 81
2004-06-03 07:06:42 51°13.472 2°52.089 5.6 98 13.4 102870 81
2004-06-03 07:06:47 51°13.47 2°52.085 5.7 100 13.4 102870 81
2004-06-03 07:06:50 51°13.469 2°52.082 5.7 101 13.4 102870 81
2004-06-03 07:06:57 51°13.467 2°52.076 6 97 13.4 102870 81
2004-06-03 07:07:02 51°13.465 2°52.071 5.6 100 13.4 102870 81
2004-06-03 07:07:06 51°13.463 2°52.068 4.9 103 13.4 102870 81
2004-06-03 07:07:12 51°13.461 2°52.063 5.2 99 13.4 102870 80
2004-06-03 07:07:17 51°13.459 2°52.059 5.8 87 13.4 102870 80
2004-06-03 07:07:22 51°13.457 2°52.054 6.1 91 13.3 102870 80
2004-06-03 07:07:26 51°13.456 2°52.051 6.7 85 13.3 102870 80
2004-06-03 07:07:30 51°13.454 2°52.047 6.7 96 13.3 102870 80
2004-06-03 07:07:37 51°13.451 2°52.041 6.6 93 13.3 102870 80
2004-06-03 07:07:42 51°13.449 2°52.037 5.8 97 13.4 102870 81
2004-06-03 07:07:46 51°13.448 2°52.034 6.2 100 13.4 102870 81
2004-06-03 07:07:52 51°13.445 2°52.029 6.9 97 13.4 102870 81
2004-06-03 07:07:56 51°13.444 2°52.026 6.7 111 13.4 102870 81
2004-06-03 07:08:02 51°13.441 2°52.02 5.4 117 13.4 102870 81
2004-06-03 07:08:06 51°13.44 2°52.017 4.9 110 13.4 102870 81
2004-06-03 07:08:12 51°13.437 2°52.012 4.9 115 13.4 102870 81
2004-06-03 07:08:17 51°13.435 2°52.008 5.2 108 13.4 102870 81
2004-06-03 07:08:20 51°13.434 2°52.005 5.1 102 13.4 102870 82
2004-06-03 07:08:24 51°13.432 2°52.002 6.3 96 13.4 102870 82
2004-06-03 07:08:32 51°13.429 2°51.995 5.7 104 13.4 102870 81
2004-06-03 07:08:37 51°13.427 2°51.991 5.5 106 13.4 102870 81
2004-06-03 07:08:42 51°13.425 2°51.987 5.9 110 13.4 102870 82
2004-06-03 07:08:44 51°13.425 2°51.986 5.9 109 13.4 102870 82
2004-06-03 07:08:52 51°13.422 2°51.979 5.1 108 13.4 102870 82
2004-06-03 07:08:56 51°13.42 2°51.976 5.5 110 13.4 102870 82
2004-06-03 07:09:02 51°13.417 2°51.97 5.5 116 13.5 102870 82
2004-06-03 07:09:04 51°13.417 2°51.969 5.6 113 13.5 102870 82
2004-06-03 07:09:12 51°13.414 2°51.963 6.3 113 13.5 102870 82
2004-06-03 07:09:16 51°13.412 2°51.959 6.7 114 13.5 102870 82
2004-06-03 07:09:22 51°13.41 2°51.954 6.3 112 13.5 102870 82
2004-06-03 07:09:26 51°13.408 2°51.951 6.1 116 13.5 102870 82
2004-06-03 07:09:32 51°13.406 2°51.946 6.3 99 13.5 102870 82
2004-06-03 07:09:37 51°13.404 2°51.942 6.3 108 13.5 102870 82
2004-06-03 07:09:42 51°13.402 2°51.938 6.6 103 13.4 102870 82
2004-06-03 07:09:46 51°13.4 2°51.935 6.3 99 13.4 102870 82
2004-06-03 07:09:52 51°13.398 2°51.929 6.2 100 13.4 102870 82
2004-06-03 07:09:57 51°13.396 2°51.925 6.5 101 13.4 102870 82
2004-06-03 07:10:01 51°13.394 2°51.922 6.9 104 13.4 102870 82
2004-06-03 07:10:07 51°13.392 2°51.917 6.5 103 13.4 102870 82
2004-06-03 07:10:12 51°13.39 2°51.913 6.7 108 13.4 102870 82
2004-06-03 07:10:17 51°13.388 2°51.909 7 105 13.4 102870 82
2004-06-03 07:10:22 51°13.386 2°51.905 6.1 108 13.4 102870 82
2004-06-03 07:10:25 51°13.384 2°51.902 5.5 106 13.4 102870 82
2004-06-03 07:10:32 51°13.382 2°51.897 6.1 106 13.4 102870 82
2004-06-03 07:10:36 51°13.38 2°51.894 6.3 106 13.4 102870 82
2004-06-03 07:10:42 51°13.377 2°51.889 6.1 104 13.4 102870 81
2004-06-03 07:10:46 51°13.376 2°51.885 5.9 106 13.4 102870 81
2004-06-03 07:10:52 51°13.373 2°51.881 5.5 99 13.4 102870 81
2004-06-03 07:10:57 51°13.371 2°51.877 5.5 101 13.4 102870 81
2004-06-03 07:11:02 51°13.369 2°51.873 5.1 103 13.3 102860 81
2004-06-03 07:11:07 51°13.367 2°51.869 5.6 100 13.3 102860 81
2004-06-03 07:11:12 51°13.365 2°51.865 5.3 102 13.3 102870 81
2004-06-03 07:11:17 51°13.363 2°51.861 5.7 104 13.3 102870 81
2004-06-03 07:11:22 51°13.361 2°51.857 5.7 105 13.3 102860 81
2004-06-03 07:11:27 51°13.359 2°51.853 5.3 102 13.3 102860 81
2004-06-03 07:11:32 51°13.357 2°51.849 6 100 13.3 102870 81
2004-06-03 07:11:36 51°13.356 2°51.846 6.1 93 13.3 102870 81
2004-06-03 07:11:42 51°13.353 2°51.841 6.5 100 13.3 102870 81
2004-06-03 07:11:46 51°13.351 2°51.837 6.3 97 13.3 102870 81
2004-06-03 07:11:50 51°13.35 2°51.834 6.5 95 13.3 102860 82
2004-06-03 07:11:57 51°13.347 2°51.828 6.6 95 13.3 102860 82
2004-06-03 07:12:02 51°13.345 2°51.825 6.9 94 13.3 102870 82
2004-06-03 07:12:07 51°13.343 2°51.82 6.1 95 13.3 102870 82
2004-06-03 07:12:12 51°13.341 2°51.816 6.4 95 13.3 102870 82
2004-06-03 07:12:17 51°13.339 2°51.813 6.1 95 13.3 102870 82
2004-06-03 07:12:22 51°13.337 2°51.808 6.5 95 13.3 102870 81
2004-06-03 07:12:27 51°13.335 2°51.804 6.5 95 13.3 102870 81
2004-06-03 07:12:32 51°13.333 2°51.8 6.6 98 13.3 102860 81
2004-06-03 07:12:37 51°13.332 2°51.796 5.9 102 13.3 102860 81
2004-06-03 07:12:42 51°13.33 2°51.792 6.4 101 13.3 102870 81
2004-06-03 07:12:47 51°13.328 2°51.788 6 101 13.3 102870 81
2004-06-03 07:12:52 51°13.326 2°51.784 5.9 104 13.2 102860 81
2004-06-03 07:12:57 51°13.324 2°51.78 5.3 98 13.2 102860 81
2004-06-03 07:13:02 51°13.322 2°51.776 5.6 94 13.2 102870 81
2004-06-03 07:13:08 51°13.319 2°51.772 5.9 102 13.2 102870 81
2004-06-03 07:13:12 51°13.318 2°51.768 6.1 96 13.2 102870 81
2004-06-03 07:13:17 51°13.316 2°51.765 6.5 96 13.2 102870 81
2004-06-03 07:13:22 51°13.314 2°51.761 6.4 105 13.2 102870 81
2004-06-03 07:13:24 51°13.313 2°51.759 6.6 102 13.2 102870 81
2004-06-03 07:13:30 51°13.311 2°51.754 6.7 104 13.2 102870 81
2004-06-03 07:13:36 51°13.309 2°51.749 6.4 99 13.2 102870 81
2004-06-03 07:13:42 51°13.306 2°51.744 6.3 98 13.2 102870 82
2004-06-03 07:13:44 51°13.305 2°51.743 6.3 100 13.2 102870 82
2004-06-03 07:13:52 51°13.302 2°51.736 6.7 102 13.3 102870 81
2004-06-03 07:13:56 51°13.301 2°51.733 6.5 101 13.3 102870 81
2004-06-03 07:14:02 51°13.299 2°51.728 6.8 97 13.2 102860 81
2004-06-03 07:14:04 51°13.298 2°51.727 6.7 97 13.2 102860 81
2004-06-03 07:14:12 51°13.296 2°51.72 6.1 97 13.2 102860 81
2004-06-03 07:14:17 51°13.293 2°51.716 6.2 95 13.2 102860 81
2004-06-03 07:14:22 51°13.292 2°51.712 5.8 98 13.2 102870 81
2004-06-03 07:14:25 51°13.291 2°51.71 6.4 98 13.2 102870 81
2004-06-03 07:14:32 51°13.288 2°51.704 6.6 98 13.2 102860 81
2004-06-03 07:14:37 51°13.286 2°51.701 6.4 94 13.2 102860 81
2004-06-03 07:14:42 51°13.285 2°51.697 6.8 103 13.2 102860 81
2004-06-03 07:14:44 51°13.284 2°51.695 6.1 101 13.2 102860 81
2004-06-03 07:14:52 51°13.281 2°51.689 6.8 99 13.3 102870 82
2004-06-03 07:14:56 51°13.28 2°51.685 6.2 96 13.3 102870 82
2004-06-03 07:15:02 51°13.277 2°51.681 7 94 13.3 102870 82
2004-06-03 07:15:04 51°13.277 2°51.679 7 99 13.3 102870 82
2004-06-03 07:15:12 51°13.274 2°51.673 6.5 99 13.3 102870 82
2004-06-03 07:15:17 51°13.272 2°51.669 6.4 101 13.3 102870 82
2004-06-03 07:15:22 51°13.27 2°51.665 6.2 95 13.3 102860 82
2004-06-03 07:15:25 51°13.269 2°51.663 7 96 13.3 102860 82
2004-06-03 07:15:32 51°13.267 2°51.657 6.7 99 13.3 102860 82
2004-06-03 07:15:37 51°13.265 2°51.654 6.6 97 13.3 102860 82
2004-06-03 07:15:42 51°13.263 2°51.65 6.4 97 13.2 102870 81
2004-06-03 07:15:44 51°13.262 2°51.648 5.9 101 13.2 102870 81
2004-06-03 07:15:50 51°13.26 2°51.643 5.9 97 13.3 102870 81
2004-06-03 07:15:56 51°13.258 2°51.639 6 106 13.3 102870 81
2004-06-03 07:16:02 51°13.256 2°51.634 6.2 102 13.3 102860 81
2004-06-03 07:16:04 51°13.256 2°51.632 6.6 112 13.3 102860 81
2004-06-03 07:16:12 51°13.253 2°51.626 6.9 107 13.2 102870 81
2004-06-03 07:16:16 51°13.251 2°51.623 6.4 101 13.2 102870 81
2004-06-03 07:16:22 51°13.249 2°51.618 6.2 103 13.2 102860 82
2004-06-03 07:16:24 51°13.248 2°51.617 6.9 101 13.2 102860 82
2004-06-03 07:16:32 51°13.245 2°51.611 6.1 101 13.3 102870 82
2004-06-03 07:16:37 51°13.244 2°51.607 7.2 100 13.3 102870 82
2004-06-03 07:16:42 51°13.242 2°51.603 7.1 101 13.3 102870 82
2004-06-03 07:16:45 51°13.241 2°51.6 6.6 100 13.3 102870 82
2004-06-03 07:16:52 51°13.238 2°51.595 6.5 99 13.3 102870 82
2004-06-03 07:16:57 51°13.236 2°51.591 6.8 103 13.3 102870 82
2004-06-03 07:17:02 51°13.234 2°51.587 6.4 113 13.3 102870 82
2004-06-03 07:17:04 51°13.234 2°51.586 6.4 103 13.3 102870 82
2004-06-03 07:17:12 51°13.231 2°51.579 5.5 113 13.3 102870 82
2004-06-03 07:17:16 51°13.23 2°51.576 5.7 108 13.3 102870 82
2004-06-03 07:17:22 51°13.227 2°51.572 6.3 104 13.3 102870 82
2004-06-03 07:17:24 51°13.226 2°51.57 6.7 104 13.3 102870 82
2004-06-03 07:17:32 51°13.223 2°51.564 6.1 102 13.3 102860 82
2004-06-03 07:17:37 51°13.222 2°51.56 6.6 103 13.3 102860 82
2004-06-03 07:17:42 51°13.22 2°51.556 6.4 102 13.3 102870 82
2004-06-03 07:17:45 51°13.219 2°51.554 6.3 101 13.3 102870 82
2004-06-03 07:17:52 51°13.216 2°51.548 6.3 102 13.3 102870 82
2004-06-03 07:17:57 51°13.215 2°51.544 6.6 104 13.3 102870 82
2004-06-03 07:18:02 51°13.213 2°51.54 5.9 96 13.3 102860 82
2004-06-03 07:18:05 51°13.212 2°51.538 6.2 101 13.3 102860 82
2004-06-03 07:18:12 51°13.209 2°51.533 5.4 105 13.3 102870 82
2004-06-03 07:18:17 51°13.208 2°51.529 5.8 96 13.3 102870 82
2004-06-03 07:18:22 51°13.206 2°51.525 6 98 13.3 102860 82
2004-06-03 07:18:25 51°13.205 2°51.522 5.4 101 13.3 102860 82
2004-06-03 07:18:32 51°13.202 2°51.517 5.6 99 13.3 102870 82
2004-06-03 07:18:37 51°13.201 2°51.513 5.6 100 13.3 102870 82
2004-06-03 07:18:42 51°13.199 2°51.51 5.8 93 13.3 102870 82
2004-06-03 07:18:44 51°13.198 2°51.508 6 98 13.3 102870 82
2004-06-03 07:18:52 51°13.196 2°51.502 6.5 99 13.3 102870 82
2004-06-03 07:18:56 51°13.194 2°51.499 6.5 95 13.3 102870 82
2004-06-03 07:19:02 51°13.192 2°51.495 6.5 92 13.3 102870 82
2004-06-03 07:19:04 51°13.191 2°51.493 6.9 92 13.3 102870 82
2004-06-03 07:19:12 51°13.189 2°51.487 6.9 95 13.3 102870 82
2004-06-03 07:19:17 51°13.187 2°51.483 7 96 13.3 102870 82
2004-06-03 07:19:22 51°13.185 2°51.48 7.1 92 13.3 102870 82
2004-06-03 07:19:25 51°13.184 2°51.477 6.5 92 13.3 102870 82
2004-06-03 07:19:32 51°13.182 2°51.468 7.6 87 13.3 102860 82
2004-06-03 07:19:37 51°13.18 2°51.46 7.3 86 13.3 102860 82
2004-06-03 07:19:42 51°13.179 2°51.451 7.8 89 13.3 102870 82
2004-06-03 07:19:45 51°13.178 2°51.444 7.1 84 13.3 102870 82
2004-06-03 07:19:52 51°13.174 2°51.424 7.2 85 13.3 102860 82
2004-06-03 07:19:56 51°13.172 2°51.41 6.6 75 13.3 102860 82
2004-06-03 07:20:02 51°13.167 2°51.388 6.2 76 13.3 102860 82
2004-06-03 07:20:07 51°13.163 2°51.367 6 71 13.3 102860 82
2004-06-03 07:20:10 51°13.159 2°51.354 6.1 74 13.3 102860 81
2004-06-03 07:20:17 51°13.15 2°51.321 6.6 73 13.3 102860 81
2004-06-03 07:20:22 51°13.142 2°51.297 6.5 73 13.3 102860 81
2004-06-03 07:20:26 51°13.136 2°51.276 6.7 65 13.3 102860 81
2004-06-03 07:20:32 51°13.125 2°51.244 6.8 69 13.2 102860 81
2004-06-03 07:20:37 51°13.117 2°51.217 7.5 62 13.2 102860 81
2004-06-03 07:20:42 51°13.107 2°51.19 7.9 62 13.2 102860 81
2004-06-03 07:20:46 51°13.1 2°51.167 7.3 60 13.2 102860 81
2004-06-03 07:20:49 51°13.094 2°51.151 7 60 13.2 102860 81
2004-06-03 07:20:57 51°13.079 2°51.106 7.1 58 13.2 102860 81
2004-06-03 07:21:02 51°13.069 2°51.077 6.9 56 13.2 102860 81
2004-06-03 07:21:05 51°13.064 2°51.06 7.6 57 13.2 102860 81
2004-06-03 07:21:12 51°13.05 2°51.019 7.7 54 13.2 102860 81
2004-06-03 07:21:16 51°13.042 2°50.997 8.7 62 13.2 102860 81
2004-06-03 07:21:22 51°13.03 2°50.961 7.8 66 13.2 102870 81
2004-06-03 07:21:26 51°13.022 2°50.939 8.4 61 13.2 102870 81
2004-06-03 07:21:32 51°13.01 2°50.904 8.5 60 13.2 102860 81
2004-06-03 07:21:37 51°12.999 2°50.875 8.5 63 13.2 102860 81
2004-06-03 07:21:41 51°12.992 2°50.852 7.8 63 13.2 102860 81
2004-06-03 07:21:47 51°12.979 2°50.817 7.8 64 13.2 102860 81
2004-06-03 07:21:52 51°12.969 2°50.788 8 61 13.2 102860 81
2004-06-03 07:21:56 51°12.961 2°50.765 6.9 68 13.2 102860 81
2004-06-03 07:22:02 51°12.949 2°50.73 7.4 64 13.2 102860 81
2004-06-03 07:22:06 51°12.941 2°50.706 7.3 60 13.2 102860 81
2004-06-03 07:22:09 51°12.936 2°50.688 7.1 65 13.2 102860 81
2004-06-03 07:22:17 51°12.919 2°50.642 7.3 58 13.2 102860 81
2004-06-03 07:22:21 51°12.911 2°50.618 6.4 63 13.2 102870 81
2004-06-03 07:22:28 51°12.897 2°50.577 6.5 59 13.2 102870 81
2004-06-03 07:22:32 51°12.888 2°50.553 6 71 13.2 102860 81
2004-06-03 07:22:37 51°12.879 2°50.524 5.9 70 13.2 102860 81
2004-06-03 07:22:42 51°12.868 2°50.495 6.7 65 13.2 102860 81
2004-06-03 07:22:46 51°12.86 2°50.471 7.6 61 13.2 102860 81
2004-06-03 07:22:52 51°12.848 2°50.436 8.5 56 13.2 102870 81
2004-06-03 07:22:56 51°12.84 2°50.412 8 52 13.2 102870 81
2004-06-03 07:23:02 51°12.827 2°50.377 8 61 13.2 102870 81
2004-06-03 07:23:07 51°12.818 2°50.347 8.7 57 13.2 102870 81
2004-06-03 07:23:12 51°12.808 2°50.317 8.6 57 13.2 102870 81
2004-06-03 07:23:17 51°12.798 2°50.287 8.1   13.2 102870 81
2004-06-03 07:23:22 51°12.789 2°50.257 7.8 59 13.2 102860 81
2004-06-03 07:23:26 51°12.782 2°50.233 7.8 61 13.2 102860 81
2004-06-03 07:23:32 51°12.771 2°50.197 8.2 62 13.2 102860 81
2004-06-03 07:23:37 51°12.761 2°50.167 7.7 58 13.2 102860 81
2004-06-03 07:23:42 51°12.75 2°50.137 6.8 64 13.2 102860 81
2004-06-03 07:23:47 51°12.741 2°50.107 6.9 58 13.2 102860 81
2004-06-03 07:23:52 51°12.731 2°50.077 7.7 60 13.3 102870 81
2004-06-03 07:23:57 51°12.72 2°50.048 8.5 58 13.3 102870 81
2004-06-03 07:24:02 51°12.71 2°50.019 8.7 58 13.2 102860 81
2004-06-03 07:24:07 51°12.7 2°49.989 8.3 60 13.2 102860 81
2004-06-03 07:24:12 51°12.69 2°49.96 8.8 58 13.2 102870 81
2004-06-03 07:24:17 51°12.68 2°49.93 8.7 63 13.2 102870 81
2004-06-03 07:24:22 51°12.67 2°49.901 8.7 59 13.2 102860 81
2004-06-03 07:24:27 51°12.66 2°49.871 8 61 13.2 102860 81
2004-06-03 07:24:32 51°12.65 2°49.842 8.1 62 13.2 102860 81
2004-06-03 07:24:37 51°12.64 2°49.812 7.4 59 13.2 102860 81
2004-06-03 07:24:42 51°12.63 2°49.782 8.1 61 13.2 102860 81
2004-06-03 07:24:44 51°12.626 2°49.77 7.2 61 13.2 102860 81
2004-06-03 07:24:52 51°12.611 2°49.723 7.4 60 13.2 102860 81
2004-06-03 07:24:57 51°12.601 2°49.693 6.8 57 13.2 102860 81
2004-06-03 07:25:02 51°12.592 2°49.662 6.5 54 13.2 102860 81
2004-06-03 07:25:05 51°12.586 2°49.645 6.9 63 13.2 102860 81
2004-06-03 07:25:12 51°12.574 2°49.602 5.5 54 13.2 102860 80
2004-06-03 07:25:16 51°12.566 2°49.579 6.2 55 13.2 102860 80
2004-06-03 07:25:22 51°12.555 2°49.542 6.5 52 13.2 102870 80
2004-06-03 07:25:26 51°12.548 2°49.517 6.4 52 13.2 102870 80
2004-06-03 07:25:32 51°12.537 2°49.481 7.2 59 13.2 102870 80
2004-06-03 07:25:37 51°12.528 2°49.45 6.9 56 13.2 102870 80
2004-06-03 07:25:42 51°12.518 2°49.419 6.3 53 13.2 102870 81
2004-06-03 07:25:45 51°12.513 2°49.4 7.4 56 13.2 102870 81
2004-06-03 07:25:52 51°12.5 2°49.357 7 46 13.2 102870 81
2004-06-03 07:25:57 51°12.49 2°49.326 8.9 59 13.2 102870 81
2004-06-03 07:26:02 51°12.48 2°49.296 7.8 54 13.2 102870 81
2004-06-03 07:26:07 51°12.471 2°49.266 7.9 57 13.2 102870 81
2004-06-03 07:26:12 51°12.461 2°49.235 8 60 13.2 102870 81
2004-06-03 07:26:16 51°12.453 2°49.211 7.9 61 13.2 102870 81
2004-06-03 07:26:22 51°12.441 2°49.174 8.5 51 13.2 102870 81
2004-06-03 07:26:26 51°12.433 2°49.15 8.2 60 13.2 102870 81
2004-06-03 07:26:32 51°12.421 2°49.114 8.2 61 13.2 102870 80
2004-06-03 07:26:37 51°12.412 2°49.084 8.4 63 13.2 102870 80
2004-06-03 07:26:42 51°12.402 2°49.054 8.5 57 13.2 102870 81
2004-06-03 07:26:44 51°12.398 2°49.042 7.7 58 13.2 102870 81
2004-06-03 07:26:52 51°12.382 2°48.993 7.1 59 13.2 102870 80
2004-06-03 07:26:57 51°12.372 2°48.963 7.8 61 13.2 102870 80
2004-06-03 07:27:02 51°12.362 2°48.933 7.5 62 13.2 102860 81
2004-06-03 07:27:07 51°12.351 2°48.904 6.8 57 13.2 102860 81
2004-06-03 07:27:12 51°12.342 2°48.873 7.1 54 13.2 102870 80
2004-06-03 07:27:17 51°12.331 2°48.843 6.6 62 13.2 102870 80
2004-06-03 07:27:22 51°12.321 2°48.813 6.6 57 13.2 102870 80
2004-06-03 07:27:27 51°12.31 2°48.784 7 58 13.2 102870 80
2004-06-03 07:27:32 51°12.3 2°48.753 6.5 55 13.2 102870 80
2004-06-03 07:27:36 51°12.292 2°48.729 6.8 56 13.2 102870 80
2004-06-03 07:27:42 51°12.28 2°48.692 7.2 46 13.2 102870 80
2004-06-03 07:27:45 51°12.274 2°48.674 6.6 55 13.2 102870 80
2004-06-03 07:27:52 51°12.261 2°48.631 6.8 58 13.2 102870 81
2004-06-03 07:27:57 51°12.251 2°48.6 6.7 56 13.2 102870 81
2004-06-03 07:28:01 51°12.244 2°48.576 6.6 53 13.2 102870 80
2004-06-03 07:28:07 51°12.231 2°48.54 6.3 62 13.2 102870 80
2004-06-03 07:28:12 51°12.222 2°48.509 5.8 56 13.2 102870 80
2004-06-03 07:28:17 51°12.212 2°48.479 5.8   13.2 102870 80
2004-06-03 07:28:22 51°12.202 2°48.449 5.7 53 13.2 102870 80
2004-06-03 07:28:26 51°12.193 2°48.425 6 56 13.2 102870 80
2004-06-03 07:28:32 51°12.181 2°48.389 6.2 67 13.2 102870 80
2004-06-03 07:28:37 51°12.171 2°48.358 6.7 62 13.2 102870 80
2004-06-03 07:28:42 51°12.161 2°48.328 6.1 60 13.2 102870 80
2004-06-03 07:28:47 51°12.15 2°48.298 7.1 62 13.2 102870 80
2004-06-03 07:28:52 51°12.14 2°48.268 6.4 64 13.2 102870 80
2004-06-03 07:28:57 51°12.129 2°48.239 7 62 13.2 102870 80
2004-06-03 07:29:02 51°12.118 2°48.208 7.8 58 13.2 102870 80
2004-06-03 07:29:06 51°12.11 2°48.184 8.1 61 13.2 102870 80
2004-06-03 07:29:12 51°12.098 2°48.148 8.1 62 13.2 102870 80
2004-06-03 07:29:17 51°12.089 2°48.118 7.9 66 13.2 102870 80
2004-06-03 07:29:22 51°12.079 2°48.088 7.7 63 13.2 102870 81
2004-06-03 07:29:27 51°12.069 2°48.057 7.1 61 13.2 102870 81
2004-06-03 07:29:32 51°12.06 2°48.026 6.6 69 13.2 102870 81
2004-06-03 07:29:37 51°12.051 2°47.995 8.3 65 13.2 102870 81
2004-06-03 07:29:41 51°12.044 2°47.97 7.6 63 13.2 102870 80
2004-06-03 07:29:45 51°12.037 2°47.946 8.4 59 13.2 102870 80
2004-06-03 07:29:52 51°12.024 2°47.902 7.5 59 13.2 102870 80
2004-06-03 07:29:57 51°12.014 2°47.871 7.6 57 13.2 102870 80
2004-06-03 07:30:02 51°12.004 2°47.841 7.4 60 13.2 102870 81
2004-06-03 07:30:04 51°12 2°47.828 7.1 63 13.2 102870 81
2004-06-03 07:30:12 51°11.985 2°47.78 6.4 59 13.2 102870 80
2004-06-03 07:30:17 51°11.974 2°47.75 6.6 63 13.2 102870 80
2004-06-03 07:30:22 51°11.964 2°47.719 6.2 53 13.2 102870 80
2004-06-03 07:30:27 51°11.954 2°47.689 6.3 59 13.2 102870 80
2004-06-03 07:30:32 51°11.943 2°47.659 6.9 57 13.2 102870 80
2004-06-03 07:30:37 51°11.933 2°47.629 7.2 55 13.2 102870 80
2004-06-03 07:30:40 51°11.927 2°47.611 7.1 60 13.2 102870 80
2004-06-03 07:30:47 51°11.912 2°47.57 8.2 58 13.2 102870 80
2004-06-03 07:30:52 51°11.901 2°47.54 8.2 60 13.2 102870 80
2004-06-03 07:30:57 51°11.89 2°47.51 7.7 60 13.2 102870 80
2004-06-03 07:31:02 51°11.88 2°47.48 7.2 55 13.2 102870 80
2004-06-03 07:31:07 51°11.87 2°47.45 7.2 58 13.2 102870 80
2004-06-03 07:31:10 51°11.864 2°47.431 7.9 57 13.2 102870 80
2004-06-03 07:31:22 51°11.842 2°47.357 7.8 59 13.2 102870 80
2004-06-03 07:31:27 51°11.832 2°47.327 7.8 55 13.2 102870 80
2004-06-03 07:31:32 51°11.823 2°47.296 7.5 57 13.2 102870 80
2004-06-03 07:31:36 51°11.815 2°47.271 7.2 58 13.2 102870 80
2004-06-03 07:31:42 51°11.804 2°47.235 7.5 62 13.2 102870 80
2004-06-03 07:31:46 51°11.796 2°47.21 6.9 56 13.2 102870 80
2004-06-03 07:31:52 51°11.784 2°47.174 7 62 13.2 102870 80
2004-06-03 07:31:56 51°11.776 2°47.149 6.7 60 13.2 102870 80
2004-06-03 07:32:02 51°11.764 2°47.113 7.3 57 13.2 102870 80
2004-06-03 07:32:07 51°11.754 2°47.083 7.2 63 13.2 102870 80
2004-06-03 07:32:12 51°11.744 2°47.054 7.5 62 13.2 102870 80
2004-06-03 07:32:17 51°11.733 2°47.023 6 63 13.2 102870 80
2004-06-03 07:32:22 51°11.723 2°46.993 7.7 62 13.2 102870 80
2004-06-03 07:32:25 51°11.718 2°46.975 6.1 57 13.2 102870 80
2004-06-03 07:32:32 51°11.704 2°46.933 6.2 55 13.2 102870 80
2004-06-03 07:32:37 51°11.694 2°46.902 6.4 58 13.2 102870 80
2004-06-03 07:32:42 51°11.684 2°46.872 6.7 58 13.2 102880 80
2004-06-03 07:32:47 51°11.675 2°46.842 7.6 66 13.2 102880 80
2004-06-03 07:32:52 51°11.665 2°46.811 7.1 64 13.2 102870 80
2004-06-03 07:32:57 51°11.655 2°46.781 7.1 61 13.2 102870 80
2004-06-03 07:33:02 51°11.646 2°46.751 6.4 61 13.2 102870 80
2004-06-03 07:33:05 51°11.64 2°46.733 6.8 60 13.2 102870 80
2004-06-03 07:33:12 51°11.625 2°46.691 6.7 56 13.2 102880 80
2004-06-03 07:33:17 51°11.616 2°46.661 6 58 13.2 102880 80
2004-06-03 07:33:22 51°11.605 2°46.631 6.4 55 13.2 102880 80
2004-06-03 07:33:26 51°11.597 2°46.607 7 63 13.2 102880 80
2004-06-03 07:33:32 51°11.585 2°46.571 7.1 59 13.2 102870 80
2004-06-03 07:33:37 51°11.575 2°46.541 6.9 65 13.2 102870 80
2004-06-03 07:33:42 51°11.565 2°46.511 7.3 52 13.2 102880 80
2004-06-03 07:33:47 51°11.556 2°46.48 7.6 63 13.2 102880 80
2004-06-03 07:33:52 51°11.547 2°46.449 6.9 53 13.2 102880 80
2004-06-03 07:33:56 51°11.54 2°46.424 8 54 13.2 102880 80
2004-06-03 07:34:02 51°11.529 2°46.388 7.4 55 13.2 102880 80
2004-06-03 07:34:07 51°11.519 2°46.357 7.3 54 13.2 102880 80
2004-06-03 07:34:12 51°11.51 2°46.327 7 57 13.2 102880 80
2004-06-03 07:34:17 51°11.5 2°46.297 7.3 52 13.2 102880 80
2004-06-03 07:34:22 51°11.49 2°46.267 7.8 56 13.3 102880 80
2004-06-03 07:34:27 51°11.481 2°46.236 7.6 52 13.3 102880 80
2004-06-03 07:34:32 51°11.471 2°46.206 7.9 57 13.2 102880 80
2004-06-03 07:34:37 51°11.462 2°46.176 7.4 51 13.2 102880 80
2004-06-03 07:34:42 51°11.451 2°46.146 8.2 54 13.2 102880 80
2004-06-03 07:34:47 51°11.442 2°46.116 8.1 56 13.2 102880 80
2004-06-03 07:34:52 51°11.432 2°46.085 8.4 53 13.2 102870 80
2004-06-03 07:34:56 51°11.424 2°46.061 8.5 53 13.2 102870 80
2004-06-03 07:35:02 51°11.412 2°46.025 8 56 13.3 102880 81
2004-06-03 07:35:07 51°11.403 2°45.995 8.1 57 13.3 102880 81
2004-06-03 07:35:12 51°11.393 2°45.965 7.7 46 13.3 102870 80
2004-06-03 07:35:17 51°11.383 2°45.935 8.1 49 13.3 102870 80
2004-06-03 07:35:22 51°11.374 2°45.904 7.7 51 13.3 102870 80
2004-06-03 07:35:26 51°11.367 2°45.879 7.5 51 13.3 102870 80
2004-06-03 07:35:32 51°11.356 2°45.843 7.4 50 13.2 102880 80
2004-06-03 07:35:37 51°11.346 2°45.813 8.5 51 13.2 102880 80
2004-06-03 07:35:42 51°11.337 2°45.782 8.3 49 13.2 102880 80
2004-06-03 07:35:47 51°11.327 2°45.751 8.1 50 13.2 102880 80
2004-06-03 07:35:52 51°11.319 2°45.72 7.4 49 13.2 102880 80
2004-06-03 07:35:57 51°11.309 2°45.69 8.3 50 13.2 102880 80
2004-06-03 07:36:01 51°11.302 2°45.665 7.7 48 13.2 102880 80
2004-06-03 07:36:07 51°11.291 2°45.628 8.8 52 13.2 102880 80
2004-06-03 07:36:12 51°11.282 2°45.598 7.9 52 13.2 102880 80
2004-06-03 07:36:17 51°11.272 2°45.568 8 55 13.2 102880 80
2004-06-03 07:36:22 51°11.262 2°45.538 7.9 52 13.2 102880 80
2004-06-03 07:36:27 51°11.253 2°45.507 7.2 49 13.2 102880 80
2004-06-03 07:36:32 51°11.243 2°45.478 8.1 44 13.2 102880 80
2004-06-03 07:36:37 51°11.234 2°45.447 8.4 53 13.2 102880 80
2004-06-03 07:36:42 51°11.224 2°45.417 8.5 60 13.2 102880 80
2004-06-03 07:36:46 51°11.216 2°45.393 7.6 54 13.2 102880 80
2004-06-03 07:36:52 51°11.205 2°45.357 7.5 54 13.2 102880 80
2004-06-03 07:36:56 51°11.197 2°45.333 7.5 53 13.2 102880 80
2004-06-03 07:37:02 51°11.186 2°45.296 7.4 49 13.2 102880 81
2004-06-03 07:37:07 51°11.177 2°45.266 8.4 52 13.2 102880 81
2004-06-03 07:37:12 51°11.168 2°45.235 9 53 13.2 102880 80
2004-06-03 07:37:17 51°11.16 2°45.204 9.3 55 13.2 102880 80
2004-06-03 07:37:22 51°11.152 2°45.174 8.1 54 13.2 102880 80
2004-06-03 07:37:25 51°11.147 2°45.155 8.5 61 13.2 102880 80
2004-06-03 07:37:32 51°11.135 2°45.112 8.5 60 13.2 102880 81
2004-06-03 07:37:37 51°11.126 2°45.081 9 58 13.2 102880 81
2004-06-03 07:37:42 51°11.117 2°45.051 8.6 59 13.2 102880 81
2004-06-03 07:37:44 51°11.113 2°45.04 7.5 57 13.2 102880 81
2004-06-03 07:37:51 51°11.099 2°44.999 7.6 59 13.2 102880 81
2004-06-03 07:37:57 51°11.086 2°44.964 7.3 63 13.2 102880 81
2004-06-03 07:38:02 51°11.075 2°44.935 6.6 60 13.2 102870 81
2004-06-03 07:38:07 51°11.064 2°44.906 7.2 59 13.2 102870 81
2004-06-03 07:38:12 51°11.053 2°44.877 7.6 55 13.2 102880 81
2004-06-03 07:38:17 51°11.043 2°44.848 7 55 13.2 102880 81
2004-06-03 07:38:22 51°11.033 2°44.82 8.5 59 13.2 102880 81
2004-06-03 07:38:27 51°11.024 2°44.789 8.5 56 13.2 102880 81
2004-06-03 07:38:32 51°11.015 2°44.758 8.6 59 13.2 102880 81
2004-06-03 07:38:37 51°11.008 2°44.727 9 55 13.2 102880 81
2004-06-03 07:38:42 51°11.001 2°44.695 8.7 52 13.2 102880 81
2004-06-03 07:38:44 51°10.999 2°44.682 9.4 57 13.2 102880 81
2004-06-03 07:38:52 51°10.99 2°44.631 9.3 51 13.2 102880 81
2004-06-03 07:38:57 51°10.984 2°44.599 9 59 13.2 102880 81
2004-06-03 07:39:02 51°10.979 2°44.567 8.4 46 13.2 102880 81
2004-06-03 07:39:06 51°10.974 2°44.541 8.3 54 13.2 102880 81
2004-06-03 07:39:12 51°10.967 2°44.502 9.3 53 13.2 102870 81
2004-06-03 07:39:17 51°10.96 2°44.47 8 53 13.2 102870 81
2004-06-03 07:39:21 51°10.955 2°44.444 8.1 51 13.2 102880 81
2004-06-03 07:39:28 51°10.946 2°44.4 8.4 51 13.2 102880 81
2004-06-03 07:39:32 51°10.939 2°44.375 8.5 56 13.2 102870 81
2004-06-03 07:39:37 51°10.932 2°44.343 7.7 55 13.2 102870 81
2004-06-03 07:39:42 51°10.924 2°44.312 8.3 53 13.1 102880 81
2004-06-03 07:39:45 51°10.92 2°44.293 7.5 52 13.1 102880 81
2004-06-03 07:39:52 51°10.909 2°44.25 7.8 57 13.2 102870 81
2004-06-03 07:39:57 51°10.901 2°44.218 7.7 54 13.2 102870 81
2004-06-03 07:40:02 51°10.893 2°44.187 7.6 55 13.2 102880 81
2004-06-03 07:40:07 51°10.886 2°44.155 9.2 44 13.2 102880 81
2004-06-03 07:40:12 51°10.879 2°44.123 8.9 50 13.2 102880 81
2004-06-03 07:40:17 51°10.873 2°44.091 8.6 48 13.2 102880 81
2004-06-03 07:40:22 51°10.866 2°44.059 8.5 51 13.2 102880 81
2004-06-03 07:40:27 51°10.86 2°44.027 8.4 49 13.2 102880 81
2004-06-03 07:40:32 51°10.855 2°43.995 7.3 45 13.2 102880 81
2004-06-03 07:40:36 51°10.85 2°43.969 9.2 50 13.2 102880 81
2004-06-03 07:40:41 51°10.844 2°43.937 8.8 51 13.2 102880 81
2004-06-03 07:40:47 51°10.836 2°43.898 8.6 49 13.2 102880 81
2004-06-03 07:40:52 51°10.83 2°43.866 9.1 56 13.1 102880 81
2004-06-03 07:40:57 51°10.822 2°43.835 9.3 61 13.1 102880 81
2004-06-03 07:41:02 51°10.815 2°43.803 8.9 61 13.1 102880 81
2004-06-03 07:41:05 51°10.81 2°43.784 8.2 57 13.1 102880 81
2004-06-03 07:41:12 51°10.8 2°43.74 8.4 62 13.2 102880 81
2004-06-03 07:41:17 51°10.791 2°43.709 8.9 63 13.2 102880 81
2004-06-03 07:41:22 51°10.784 2°43.678 7.6 63 13.2 102880 81
2004-06-03 07:41:26 51°10.777 2°43.653 8.1 65 13.2 102880 81
2004-06-03 07:41:32 51°10.769 2°43.615 8.6 65 13.2 102870 81
2004-06-03 07:41:37 51°10.762 2°43.583 8 64 13.2 102870 81
2004-06-03 07:41:42 51°10.755 2°43.551 8.1 65 13.2 102880 81
2004-06-03 07:41:47 51°10.749 2°43.519 8.5 62 13.2 102880 81
2004-06-03 07:41:52 51°10.743 2°43.487 9.1 60 13.2 102880 81
2004-06-03 07:41:57 51°10.738 2°43.454 9.3 61 13.2 102880 81
2004-06-03 07:42:02 51°10.732 2°43.422 8.4 64 13.2 102880 81
2004-06-03 07:42:07 51°10.727 2°43.391 8.4 59 13.2 102880 81
2004-06-03 07:42:12 51°10.721 2°43.359 8.5 65 13.2 102880 81
2004-06-03 07:42:17 51°10.715 2°43.327 8.2 63 13.2 102880 81
2004-06-03 07:42:22 51°10.707 2°43.296 7.7 67 13.2 102880 81
2004-06-03 07:42:25 51°10.704 2°43.277 7.2 67 13.2 102880 81
2004-06-03 07:42:32 51°10.693 2°43.234 7.6 64 13.2 102880 81
2004-06-03 07:42:37 51°10.685 2°43.203 8.7 61 13.2 102880 81
2004-06-03 07:42:42 51°10.678 2°43.172 8.1 59 13.2 102880 81
2004-06-03 07:42:47 51°10.67 2°43.141 8.4 59 13.2 102880 81
2004-06-03 07:42:52 51°10.664 2°43.11 8 58 13.2 102880 81
2004-06-03 07:42:57 51°10.657 2°43.078 8 61 13.2 102880 81
2004-06-03 07:43:01 51°10.652 2°43.053 7.8 58 13.2 102880 81
2004-06-03 07:43:05 51°10.646 2°43.028 7.3 54 13.2 102880 81
2004-06-03 07:43:12 51°10.638 2°42.983 8.3 55 13.2 102880 80
2004-06-03 07:43:17 51°10.632 2°42.952 8.9 60 13.2 102880 80
2004-06-03 07:43:22 51°10.626 2°42.92 9.4 54 13.2 102880 80
2004-06-03 07:43:26 51°10.621 2°42.894 8.9 57 13.2 102880 80
2004-06-03 07:43:29 51°10.617 2°42.875 8.5 59 13.2 102880 81
2004-06-03 07:43:37 51°10.606 2°42.825 8.4 58 13.2 102880 81
2004-06-03 07:43:42 51°10.599 2°42.793 8.4 54 13.2 102880 81
2004-06-03 07:43:45 51°10.595 2°42.774 8.2 55 13.2 102880 81
2004-06-03 07:43:52 51°10.584 2°42.731 8.7 54 13.2 102880 81
2004-06-03 07:43:57 51°10.576 2°42.7 8.7 57 13.2 102880 81
2004-06-03 07:44:02 51°10.569 2°42.668 8 54 13.2 102880 81
2004-06-03 07:44:06 51°10.563 2°42.643 7.9 56 13.2 102880 81
2004-06-03 07:44:12 51°10.554 2°42.606 8.4 58 13.2 102880 81
2004-06-03 07:44:17 51°10.546 2°42.575 8.6 58 13.2 102880 81
2004-06-03 07:44:22 51°10.539 2°42.543 8.7 56 13.2 102880 81
2004-06-03 07:44:28 51°10.531 2°42.505 8.4 54 13.2 102880 81
2004-06-03 07:44:32 51°10.526 2°42.479 8.7 46 13.2 102880 80
2004-06-03 07:44:37 51°10.52 2°42.447 8.7 51 13.2 102880 80
2004-06-03 07:44:42 51°10.514 2°42.416 8.2 50 13.2 102880 81
2004-06-03 07:44:46 51°10.509 2°42.39 7.5 52 13.2 102880 81
2004-06-03 07:44:49 51°10.506 2°42.371 7.9 55 13.2 102880 81
2004-06-03 07:44:57 51°10.496 2°42.319 7.7 51 13.2 102880 81
2004-06-03 07:45:02 51°10.49 2°42.287 8.4 50 13.2 102880 80
2004-06-03 07:45:07 51°10.483 2°42.255 8.3 54 13.2 102880 80
2004-06-03 07:45:12 51°10.476 2°42.224 8.9 55 13.2 102880 80
2004-06-03 07:45:16 51°10.47 2°42.199 8.5 56 13.2 102880 80
2004-06-03 07:45:22 51°10.461 2°42.161 9.1 55 13.2 102880 81
2004-06-03 07:45:27 51°10.454 2°42.129 8.6 54 13.2 102880 81
2004-06-03 07:45:32 51°10.446 2°42.098 9.4 57 13.2 102880 81
2004-06-03 07:45:37 51°10.439 2°42.066 8.3 59 13.2 102880 81
2004-06-03 07:45:42 51°10.431 2°42.035 8.9 52 13.2 102870 81
2004-06-03 07:45:45 51°10.427 2°42.015 9.6 61 13.2 102870 81
2004-06-03 07:45:52 51°10.417 2°41.971 8.5 59 13.2 102870 80
2004-06-03 07:45:57 51°10.41 2°41.939 8.6 53 13.2 102870 80
2004-06-03 07:46:02 51°10.402 2°41.907 8.6 61 13.2 102880 80
2004-06-03 07:46:07 51°10.394 2°41.876 9.1 56 13.2 102880 80
2004-06-03 07:46:12 51°10.387 2°41.844 8.1 55 13.2 102880 80
2004-06-03 07:46:17 51°10.379 2°41.813 8.4 60 13.2 102880 80
2004-06-03 07:46:22 51°10.372 2°41.781 8.1 61 13.2 102870 81
2004-06-03 07:46:25 51°10.368 2°41.762 8.8 58 13.2 102870 81
2004-06-03 07:46:32 51°10.357 2°41.718 9.1 59 13.2 102880 81
2004-06-03 07:46:37 51°10.35 2°41.686 8.9 58 13.2 102880 81
2004-06-03 07:46:42 51°10.343 2°41.655 8.8 66 13.2 102870 80
2004-06-03 07:46:47 51°10.338 2°41.622 8.1 54 13.2 102870 80
2004-06-03 07:46:52 51°10.331 2°41.59 8.7 58 13.2 102880 80
2004-06-03 07:46:57 51°10.324 2°41.559 9.1 64 13.2 102880 80
2004-06-03 07:47:02 51°10.317 2°41.527 8.6 64 13.2 102880 80
2004-06-03 07:47:07 51°10.31 2°41.495 8.2 65 13.2 102880 80
2004-06-03 07:47:12 51°10.304 2°41.463 8.2 66 13.2 102880 80
2004-06-03 07:47:17 51°10.297 2°41.432 8.6 65 13.2 102880 80
2004-06-03 07:47:22 51°10.29 2°41.399 9 56 13.2 102880 80
2004-06-03 07:47:26 51°10.284 2°41.374 9.6 64 13.2 102880 80
2004-06-03 07:47:32 51°10.277 2°41.336 9.2 61 13.2 102880 80
2004-06-03 07:47:37 51°10.27 2°41.304 8.6 61 13.2 102880 80
2004-06-03 07:47:42 51°10.263 2°41.272 8.7 60 13.2 102880 80
2004-06-03 07:47:47 51°10.256 2°41.24 8.5 58 13.2 102880 80
2004-06-03 07:47:52 51°10.249 2°41.209 8.1 61 13.2 102870 80
2004-06-03 07:47:57 51°10.242 2°41.177 8.2 61 13.2 102870 80
2004-06-03 07:48:01 51°10.236 2°41.152 7.5 60 13.2 102870 80
2004-06-03 07:48:04 51°10.231 2°41.133 7.4 62 13.2 102870 80
2004-06-03 07:48:12 51°10.219 2°41.083 7.5 58 13.2 102880 80
2004-06-03 07:48:17 51°10.212 2°41.052 7.9 60 13.2 102880 80
2004-06-03 07:48:22 51°10.205 2°41.021 8.9 59 13.2 102880 80
2004-06-03 07:48:26 51°10.199 2°40.995 8 63 13.2 102880 80
2004-06-03 07:48:29 51°10.195 2°40.977 8 64 13.2 102880 80
2004-06-03 07:48:37 51°10.184 2°40.926 7.5 58 13.2 102880 80
2004-06-03 07:48:42 51°10.177 2°40.894 8.2 58 13.2 102880 80
2004-06-03 07:48:45 51°10.173 2°40.875 9.9 57 13.2 102880 80
2004-06-03 07:48:52 51°10.164 2°40.83 9.7 61 13.2 102880 80
2004-06-03 07:48:57 51°10.157 2°40.798 9.6 60 13.2 102880 80
2004-06-03 07:49:02 51°10.151 2°40.767 8.7 60 13.2 102880 80
2004-06-03 07:49:07 51°10.144 2°40.735 8.8 61 13.2 102880 80
2004-06-03 07:49:12 51°10.136 2°40.704 9.1 61 13.2 102870 80
2004-06-03 07:49:17 51°10.129 2°40.673 9.1 56 13.2 102870 80
2004-06-03 07:49:22 51°10.122 2°40.641 8.8 59 13.2 102880 80
2004-06-03 07:49:25 51°10.117 2°40.622 8.7 57 13.2 102880 80
2004-06-03 07:49:32 51°10.108 2°40.578 8.9 62 13.2 102880 80
2004-06-03 07:49:37 51°10.102 2°40.546 8.6 58 13.2 102880 80
2004-06-03 07:49:42 51°10.095 2°40.515 8.1 57 13.2 102870 80
2004-06-03 07:49:45 51°10.092 2°40.496 8.5 58 13.2 102870 80
2004-06-03 07:49:52 51°10.083 2°40.451 8.6 57 13.2 102880 80
2004-06-03 07:49:56 51°10.077 2°40.426 8.3 56 13.2 102880 80
2004-06-03 07:50:02 51°10.069 2°40.388 8.7 60 13.2 102870 80
2004-06-03 07:50:07 51°10.063 2°40.356 8.4 60 13.2 102870 80
2004-06-03 07:50:12 51°10.055 2°40.325 8.7 65 13.2 102880 80
2004-06-03 07:50:17 51°10.048 2°40.294 8.5 56 13.2 102880 80
2004-06-03 07:50:22 51°10.041 2°40.262 7.9 58 13.2 102880 80
2004-06-03 07:50:27 51°10.033 2°40.231 8.2 58 13.2 102880 80
2004-06-03 07:50:32 51°10.027 2°40.2 8 52 13.2 102880 80
2004-06-03 07:50:37 51°10.02 2°40.168 7.7 52 13.2 102880 80
2004-06-03 07:50:42 51°10.013 2°40.137 7.4 57 13.2 102870 80
2004-06-03 07:50:47 51°10.006 2°40.105 7.5 54 13.2 102870 80
2004-06-03 07:50:52 51°9.999 2°40.073 7.9 59 13.2 102880 79
2004-06-03 07:50:56 51°9.994 2°40.048 8.5 64 13.2 102880 79
2004-06-03 07:51:02 51°9.986 2°40.01 8.7 62 13.2 102880 79
2004-06-03 07:51:07 51°9.979 2°39.979 8.6 64 13.2 102880 79
2004-06-03 07:51:12 51°9.972 2°39.948 8.7 65 13.2 102890 79
2004-06-03 07:51:16 51°9.967 2°39.922 8.3 61 13.2 102890 79
2004-06-03 07:51:22 51°9.958 2°39.885 8.7 65 13.2 102880 80
2004-06-03 07:51:28 51°9.95 2°39.847 8.4 63 13.2 102880 80
2004-06-03 07:51:32 51°9.944 2°39.822 8.7 67 13.2 102880 80
2004-06-03 07:51:37 51°9.937 2°39.791 8.1 65 13.2 102880 80
2004-06-03 07:51:42 51°9.93 2°39.759 8.1 65 13.2 102880 80
2004-06-03 07:51:47 51°9.922 2°39.728 8.7 61 13.2 102880 80
2004-06-03 07:51:52 51°9.915 2°39.697 8.5 59 13.2 102880 80
2004-06-03 07:51:57 51°9.909 2°39.665 8.6 64 13.2 102880 80
2004-06-03 07:52:02 51°9.902 2°39.634 8.3 64 13.2 102880 80
2004-06-03 07:52:06 51°9.897 2°39.609 8.3 62 13.2 102880 80
2004-06-03 07:52:12 51°9.889 2°39.571 8 59 13.2 102880 80
2004-06-03 07:52:16 51°9.883 2°39.546 8.5 60 13.2 102880 80
2004-06-03 07:52:22 51°9.875 2°39.508 7.9 61 13.2 102880 80
2004-06-03 07:52:27 51°9.868 2°39.477 8 64 13.2 102880 80
2004-06-03 07:52:32 51°9.862 2°39.445 8.2 63 13.2 102890 79
2004-06-03 07:52:37 51°9.855 2°39.413 8.1 65 13.2 102890 79
2004-06-03 07:52:42 51°9.848 2°39.381 8.5 64 13.2 102890 79
2004-06-03 07:52:45 51°9.844 2°39.362 8.5 63 13.2 102890 79
2004-06-03 07:52:52 51°9.835 2°39.318 7.8 67 13.2 102880 79
2004-06-03 07:52:57 51°9.828 2°39.286 8.4 67 13.2 102880 79
2004-06-03 07:53:02 51°9.823 2°39.254 8.3 63 13.2 102880 79
2004-06-03 07:53:06 51°9.819 2°39.227 9.5 57 13.2 102880 79
2004-06-03 07:53:12 51°9.816 2°39.188 9.2 55 13.2 102880 79
2004-06-03 07:53:17 51°9.814 2°39.155 9.9 53 13.2 102880 79
2004-06-03 07:53:22 51°9.813 2°39.122 10 52 13.2 102880 79
2004-06-03 07:53:27 51°9.813 2°39.088 10.4 52 13.2 102880 79
2004-06-03 07:53:32 51°9.815 2°39.056 10.3 51 13.2 102880 79
2004-06-03 07:53:36 51°9.817 2°39.029 11.3 47 13.2 102880 79
2004-06-03 07:53:42 51°9.821 2°38.991 11.3 47 13.2 102870 79
2004-06-03 07:53:47 51°9.824 2°38.958 11.4 48 13.2 102870 79
2004-06-03 07:53:52 51°9.827 2°38.925 10.5 49 13.1 102870 79